Location: Cheyres
(46.8153°N, 6.7877°E)
Time: 23:08:00
(UTC+00:00)

ATLAS 5 CENTAUR R/B - Pass Details

Date: 11 May 2021
Orbit: 513 x 1144 km, 63.3° (Epoch: 18 June)

Event Time Altitude Azimuth Distance (km) Brightness Sun altitude
Rises 20:39:08 0° 314° (NW) 3,294 7.2 -14.6°
Reaches altitude 10° 20:41:33 10° 306° (NW) 2,458 5.9 -14.9°
Maximum altitude 20:46:49 37° 241° (WSW) 1,408 3.4 -15.5°
Enters shadow 20:51:49 14° 180° (S) 2,488 4.2 -16.0°
